Kindersley, Saskatchewan

2:38 PM CST on July 25, 2017 (GMT -0600)
Kindersley

Weather History for CYKY - June, 2014

Change the Weather History Date:

Tuesday, June 10, 2014

  Actual Average Record
Temperature  
Mean Temperature 54 °F -  
Max Temperature 68 °F 70 °F 77 °F (1998)
Min Temperature 40 °F 48 °F 37 °F (1999)
Degree Days  
Heating Degree Days 11    
Growing Degree Days 4 (Base 50)    
Moisture  
Dew Point 38 °F    
Average Humidity 54    
Maximum Humidity 81    
Minimum Humidity 24    
Precipitation  
Precipitation 0.00 in - - ()
Sea Level Pressure  
Sea Level Pressure 29.84 in    
Wind  
Wind Speed 14 mph ()    
Max Wind Speed 29 mph    
Max Gust Speed 38 mph    
Visibility 15.0 miles    
Events      
Averages and records for this station are not official NWS values.
T = Trace of Precipitation, MM = Missing Value Source: Averaged Metar Reports

Daily Weather History Graph

Daily Weather History Graph

Search for Another Location

Airport or City:

Trip Planner

Search our weather history database for the weather conditions in past years. The results will help you decide how hot, cold, wet, or windy it might be!

Date:

Astronomy

Jun. 10, 2014 Rise Set
Actual Time 4:59 AM CST 9:32 PM CST
Civil Twilight 4:12 AM CST 10:19 PM CST
Nautical Twilight 3:00 AM CST 11:32 PM CST
Astronomical Twilight 1:48 AM CST 12:43 AM CST
Moon 6:44 PM CST (6/10) 3:28 AM CST (6/10)
Length of Visible Light 18h 07m
Length of Day
16h 32m
Waxing Gibbous, 92% of the Moon is Illuminated
Jun 10
Waxing Gibbous
Jun 12
Full
Jun 19
Last Quarter
Jun 27
New
Jul 5
First Quarter

Hourly Weather History & Observations

Time (CST) Temp. Windchill Dew Point Humidity Pressure Visibility Wind Dir Wind Speed Gust Speed Precip Events Conditions
12:00 AM 41 °F - 36 °F 76% 29.81 in 15 mi WSW 4.6 mph - -   Scattered Clouds
1:00 AM 46.4 °F 41.5 °F 37.4 °F 71% 29.80 in 15.0 mi West 10.4 mph - N/A   Mostly Cloudy
2:00 AM 44.6 °F 38.1 °F 37.4 °F 76% 29.80 in 15.0 mi West 13.8 mph - N/A   Partly Cloudy
3:00 AM 46.4 °F 40.4 °F 37.4 °F 71% 29.80 in 15.0 mi West 13.8 mph - N/A   Partly Cloudy
5:00 AM 42.8 °F 36.2 °F 37.4 °F 81% 29.82 in 15.0 mi West 12.7 mph - N/A   Partly Cloudy
6:00 AM 43 °F - 37 °F 72% 29.83 in 15 mi WSW 11.5 mph - -   Scattered Clouds
6:00 AM 42.8 °F 36.6 °F 37.4 °F 81% 29.83 in 15.0 mi WSW 11.5 mph - N/A   Partly Cloudy
9:00 AM 57.2 °F - 37.4 °F 48% 29.83 in 15.0 mi WNW 23.0 mph 29.9 mph N/A   Partly Cloudy
10:00 AM 60.8 °F - 37.4 °F 42% 29.83 in 15.0 mi West 24.2 mph 32.2 mph N/A   Partly Cloudy
11:00 AM 60.8 °F - 37.4 °F 42% 29.83 in 15.0 mi West 24.2 mph 32.2 mph N/A   Scattered Clouds
12:00 PM 63 °F - 35 °F 24% 29.83 in 15 mi WNW 20.7 mph - -   Partly Cloudy
12:00 PM 62.6 °F - 35.6 °F 37% 29.82 in 15.0 mi WNW 18.4 mph 32.2 mph N/A   Scattered Clouds
1:00 PM 66.2 °F - 32.0 °F 28% 29.80 in 15.0 mi West 28.8 mph 35.7 mph N/A   Mostly Cloudy
2:00 PM 68.0 °F - 33.8 °F 28% 29.81 in 15.0 mi West 26.5 mph 38.0 mph N/A   Mostly Cloudy
3:00 PM 66.2 °F - 35.6 °F 32% 29.81 in 15.0 mi WNW 26.5 mph 35.7 mph N/A   Mostly Cloudy
5:00 PM 62.6 °F - 37.4 °F 39% 29.85 in 15.0 mi WNW 19.6 mph 33.4 mph N/A   Mostly Cloudy
6:00 PM 61 °F - 41 °F 36% 29.87 in 15 mi NNW 18.4 mph - -   Scattered Clouds
6:00 PM 60.8 °F - 41.0 °F 48% 29.87 in 15.0 mi NNW 20.7 mph 26.5 mph N/A   Partly Cloudy
7:00 PM 59.0 °F - 42.8 °F 55% 29.88 in 15.0 mi NNW 19.6 mph 27.6 mph N/A   Partly Cloudy
8:00 PM 57.2 °F - 41.0 °F 55% 29.89 in 15.0 mi North 19.6 mph 27.6 mph N/A   Partly Cloudy
9:00 PM 53.6 °F - 42.8 °F 67% 29.91 in 15.0 mi North 13.8 mph - N/A   Partly Cloudy
11:00 PM 46.4 °F 41.9 °F 39.2 °F 76% 29.97 in 15.0 mi NNE 9.2 mph - N/A   Partly Cloudy